Hourly Data Report for October 16, 2016

All times are specified in Local Standard Time (LST). Add 1 hour to adjust for Daylight Saving Time where and when it is observed.

CORAL HARBOUR A
NUNAVUT

64°11'36.000" N
83°21'34.000" W
62.20 m
2301002
71915
YZS

Download Data

Hourly Data (October 2016)
Hourly Data Report for October 16, 2016
Temp Definition
°C
Dew Point Temp Definition
°C
Rel Hum Definition
%
Wind Dir Definition
10's deg

Wind Spd Definition
km/h
Visibility Definition
km
Stn Press Definition
kPa
Hmdx Definition


Wind Chill Definition


Weather Definition


TIME
00:00 Legend Double Dagger -12.8 -14.1 90 5 12 24.1 100.83   -19 LegendNANA
01:00 Legend Double Dagger -14.1 -15.8 87 33 16 24.1 100.83   -22 Mainly Clear
02:00 Legend Double Dagger -15.9 -17.7 86 33 22 24.1 100.85   -26 LegendNANA
03:00 Legend Double Dagger -15.8 -17.8 85 34 23 24.1 100.88   -26 LegendNANA
04:00 Legend Double Dagger -13.1 -14.8 87 34 22 24.1 100.92   -22 Mainly Clear
05:00 Legend Double Dagger -12.6 -14.3 87 34 21 24.1 100.95   -21 LegendNANA
06:00 Legend Double Dagger -11.1 -12.7 88 34 19 24.1 100.97   -19 LegendNANA
07:00 Legend Double Dagger -10.7 -12.3 88 34 13 24.1 101.00   -17 Mostly Cloudy
08:00 Legend Double Dagger -10.1 -12.0 86 6 5 24.1 101.02   -13 Snow
09:00 Legend Double Dagger -9.6 -11.4 87 34 3 12.9 101.05   -11 Snow
10:00 Legend Double Dagger -9.0 -10.9 86 33 6 12.9 101.08   -12 Snow
11:00 Legend Double Dagger -8.9 -10.8 86 33 9 19.3 101.12   -14 Snow
12:00 Legend Double Dagger -7.7 -9.8 85 35 4 19.3 101.15   -10 Snow
13:00 Legend Double Dagger -6.8 -9.1 84 36 1 19.3 101.17   -7 Snow
14:00 Legend Double Dagger -6.4 -8.2 87 13 7 24.1 101.17   -10 Snow
15:00 Legend Double Dagger -6.2 -7.6 90 10 4 24.1 101.20   -8 Snow
16:00 Legend Double Dagger -6.3 -7.8 89 8 4 24.1 101.21   -8 Snow
17:00 Legend Double Dagger -6.4 -7.8 90 12 7 24.1 101.22   -10 Snow
18:00 Legend Double Dagger -5.7 -6.9 91 11 7 24.1 101.22   -9 Snow
19:00 Legend Double Dagger -4.8 -5.9 92 18 5 24.1 101.21   -7 Snow
20:00 Legend Double Dagger -4.5 -4.9 97 26 12 24.1 101.20   -9 Snow
21:00 Legend Double Dagger -4.3 -4.8 96 23 16 24.1 101.18   -10 Snow
22:00 Legend Double Dagger -3.6 -4.2 96 24 9 12.9 101.17   -7 Snow
23:00 Legend Double Dagger -3.0 -3.7 95 21 16 9.7 101.18   -8 Snow

Notes on Data Quality.

Legend

  • E = Estimated
  • M = Missing
  • NA = Not Available
  • ‡ = Partner data that is not subject to review by the National Climate Archives
Date modified: